TimeEST,TemperatureF,Dew PointF,Humidity,Sea Level PressureIn,VisibilityMPH,Wind Direction,Wind SpeedMPH,Gust SpeedMPH,PrecipitationIn,Events,Conditions,WindDirDegrees,DateUTC
12:15 AM,37.4,37.4,100,30.00,0.2,Calm,Calm,-,N/A,,Overcast,0,2013-01-17 05:15:00
12:35 AM,35.6,35.6,100,30.00,0.2,Calm,Calm,-,N/A,,Overcast,0,2013-01-17 05:35:00
12:55 AM,37.4,37.4,100,30.00,0.2,Calm,Calm,-,N/A,,Overcast,0,2013-01-17 05:55:00
1:15 AM,37.4,37.4,100,30.02,3.0,NW,4.6,-,N/A,,Scattered Clouds,320,2013-01-17 06:15:00
1:35 AM,37.4,37.4,100,30.02,0.2,Calm,Calm,-,N/A,,Overcast,0,2013-01-17 06:35:00
1:55 AM,37.4,37.4,100,30.04,0.2,Calm,Calm,-,N/A,,Overcast,0,2013-01-17 06:55:00
2:15 AM,37.4,37.4,100,30.04,1.5,NW,4.6,-,N/A,,Mostly Cloudy,320,2013-01-17 07:15:00
2:35 AM,37.4,37.4,100,30.04,0.5,NW,9.2,-,N/A,,Overcast,310,2013-01-17 07:35:00
2:55 AM,35.6,35.6,100,30.05,0.2,NW,9.2,-,N/A,,Overcast,310,2013-01-17 07:55:00
3:15 AM,35.6,35.6,100,30.06,0.2,Variable,4.6,-,N/A,,Overcast,0,2013-01-17 08:15:00
3:35 AM,35.6,35.6,100,30.04,10.0,North,5.8,-,N/A,,Scattered Clouds,350,2013-01-17 08:35:00
4:15 AM,33.8,33.8,100,30.03,10.0,Variable,4.6,-,N/A,,Partly Cloudy,0,2013-01-17 09:15:00
4:35 AM,32.0,32.0,100,30.02,10.0,North,3.5,-,N/A,,Partly Cloudy,10,2013-01-17 09:35:00
4:55 AM,32.0,30.2,93,30.01,10.0,NE,3.5,-,N/A,,Partly Cloudy,50,2013-01-17 09:55:00
5:15 AM,30.2,30.2,100,30.03,10.0,Calm,Calm,-,N/A,,Partly Cloudy,0,2013-01-17 10:15:00
5:35 AM,30.2,30.2,100,30.01,10.0,Variable,3.5,-,N/A,,Mostly Cloudy,0,2013-01-17 10:35:00
5:55 AM,32.0,32.0,100,30.04,10.0,Calm,Calm,-,N/A,,Mostly Cloudy,0,2013-01-17 10:55:00
6:15 AM,30.2,30.2,100,30.04,10.0,Calm,Calm,-,N/A,,Scattered Clouds,0,2013-01-17 11:15:00
6:35 AM,30.2,30.2,100,30.03,10.0,Calm,Calm,-,N/A,,Scattered Clouds,0,2013-01-17 11:35:00
6:55 AM,30.2,30.2,100,30.04,10.0,Calm,Calm,-,N/A,,Partly Cloudy,0,2013-01-17 11:55:00
7:15 AM,30.2,30.2,100,30.03,10.0,Calm,Calm,-,N/A,,Clear,0,2013-01-17 12:15:00
7:35 AM,30.2,30.2,100,30.03,10.0,ESE,3.5,-,N/A,,Clear,110,2013-01-17 12:35:00
7:55 AM,30.2,30.2,100,30.01,10.0,East,3.5,-,N/A,,Scattered Clouds,80,2013-01-17 12:55:00
8:15 AM,30.2,30.2,100,30.01,10.0,NNE,4.6,-,N/A,,Mostly Cloudy,30,2013-01-17 13:15:00
8:35 AM,32.0,32.0,100,30.03,10.0,North,3.5,-,N/A,,Mostly Cloudy,350,2013-01-17 13:35:00
8:55 AM,32.0,32.0,100,30.04,10.0,North,3.5,-,N/A,,Mostly Cloudy,350,2013-01-17 13:55:00
9:15 AM,30.2,30.2,100,30.05,10.0,Calm,Calm,-,N/A,,Overcast,0,2013-01-17 14:15:00
9:35 AM,30.2,30.2,100,30.04,10.0,Calm,Calm,-,N/A,,Overcast,0,2013-01-17 14:35:00
9:55 AM,30.2,30.2,100,30.02,10.0,Variable,4.6,-,N/A,,Overcast,0,2013-01-17 14:55:00
10:15 AM,30.2,30.2,100,30.03,10.0,Calm,Calm,-,N/A,,Overcast,0,2013-01-17 15:15:00
10:35 AM,30.2,30.2,100,30.03,9.0,Calm,Calm,-,N/A,,Mostly Cloudy,0,2013-01-17 15:35:00
10:55 AM,30.2,30.2,100,30.02,10.0,NNE,4.6,-,N/A,,Scattered Clouds,30,2013-01-17 15:55:00
11:15 AM,30.2,30.2,100,30.03,10.0,Calm,Calm,-,N/A,,Scattered Clouds,0,2013-01-17 16:15:00
11:35 AM,30.2,30.2,100,30.01,5.0,Calm,Calm,-,N/A,,Mostly Cloudy,0,2013-01-17 16:35:00
11:55 AM,30.2,30.2,100,30.00,3.0,Variable,6.9,-,N/A,,Overcast,0,2013-01-17 16:55:00
12:15 PM,30.2,30.2,100,29.97,1.8,ENE,5.8,-,N/A,,Overcast,70,2013-01-17 17:15:00
12:35 PM,30.2,30.2,100,29.97,3.0,ENE,6.9,-,N/A,,Mostly Cloudy,60,2013-01-17 17:35:00
12:55 PM,30.2,30.2,100,29.95,1.8,Variable,4.6,-,N/A,,Mostly Cloudy,0,2013-01-17 17:55:00
1:15 PM,30.2,30.2,100,29.97,2.5,NNE,4.6,-,N/A,,Overcast,20,2013-01-17 18:15:00
1:35 PM,30.2,28.4,93,29.96,1.2,Variable,3.5,-,N/A,,Overcast,0,2013-01-17 18:35:00
1:55 PM,28.4,28.4,100,29.94,1.2,NNE,8.1,-,N/A,,Mostly Cloudy,30,2013-01-17 18:55:00
2:15 PM,28.4,28.4,100,29.97,0.2,NNE,5.8,-,N/A,,Unknown,30,2013-01-17 19:15:00
2:35 PM,28.4,28.4,100,29.98,0.2,Variable,6.9,-,N/A,,Unknown,0,2013-01-17 19:35:00
2:55 PM,26.6,26.6,100,29.98,0.2,NE,5.8,-,N/A,,Unknown,40,2013-01-17 19:55:00
3:15 PM,26.6,26.6,100,29.98,0.2,NNE,5.8,-,N/A,,Unknown,30,2013-01-17 20:15:00
3:35 PM,26.6,26.6,100,30.01,0.2,Calm,Calm,-,N/A,,Unknown,0,2013-01-17 20:35:00
3:55 PM,26.6,26.6,100,30.01,0.2,Variable,3.5,-,N/A,,Unknown,0,2013-01-17 20:55:00
4:15 PM,26.6,26.6,100,30.00,0.2,ENE,6.9,-,N/A,,Unknown,70,2013-01-17 21:15:00
4:35 PM,28.4,28.4,100,30.00,0.2,East,8.1,-,N/A,,Mostly Cloudy,80,2013-01-17 21:35:00
4:55 PM,26.6,26.6,100,30.01,0.2,Variable,6.9,-,N/A,,Mostly Cloudy,0,2013-01-17 21:55:00
5:15 PM,28.4,28.4,100,30.00,0.2,ENE,6.9,-,N/A,,Unknown,60,2013-01-17 22:15:00
5:35 PM,28.4,28.4,100,30.03,0.8,ENE,4.6,-,N/A,,Unknown,60,2013-01-17 22:35:00
5:55 PM,28.4,28.4,100,29.97,1.2,East,8.1,-,N/A,,Unknown,100,2013-01-17 22:55:00
6:35 PM,30.2,30.2,100,30.03,1.0,Calm,Calm,-,N/A,,Mostly Cloudy,0,2013-01-17 23:35:00
7:15 PM,28.4,28.4,100,30.02,1.0,Variable,4.6,-,N/A,,Mostly Cloudy,0,2013-01-18 00:15:00
7:55 PM,30.2,30.2,100,30.01,2.5,NNW,5.8,-,N/A,,Partly Cloudy,340,2013-01-18 00:55:00
8:35 PM,28.4,28.4,100,30.05,1.0,NW,6.9,-,N/A,,Mostly Cloudy,320,2013-01-18 01:35:00
8:55 PM,28.4,28.4,100,30.08,0.2,NW,9.2,-,N/A,,Overcast,320,2013-01-18 01:55:00
9:15 PM,28.4,28.4,100,30.11,0.2,NW,8.1,-,N/A,,Overcast,320,2013-01-18 02:15:00
9:55 PM,28.4,28.4,100,30.15,4.0,NW,8.1,-,N/A,,Partly Cloudy,320,2013-01-18 02:55:00
10:15 PM,28.4,28.4,100,30.16,7.0,NW,6.9,-,N/A,,Clear,310,2013-01-18 03:15:00
10:35 PM,26.6,26.6,100,30.17,8.0,Variable,5.8,-,N/A,,Clear,0,2013-01-18 03:35:00
10:55 PM,26.6,26.6,100,30.18,10.0,NW,5.8,-,N/A,,Clear,310,2013-01-18 03:55:00